Regional Weather Roundup
Issued by NWS

Home | Current Version | Previous Version | Graphics & Text | Print | Product List | Glossary Off
Versions: 1 2 3 4 5 6 7 8 9 10 11 12 13 14 15 16 17 18 19 20 21 22 23 24 25 26 27 28 29 30 31 32 33 34 35 36 37 38 39 40 41 42 43 44 45 46 47 48 49 50

000
ASUS43 KDTX 302310
RWRMI
MICHIGAN HOURLY REGIONAL WEATHER ROUNDUP
NATIONAL WEATHER SERVICE DETROIT/PONTIAC MI
700 PM EDT SUN AUG 30 2015

NOTE: "FAIR" INDICATES FEW OR NO CLOUDS BELOW 12,000 FEET WITH NO
SIGNIFICANT WEATHER AND/OR OBSTRUCTION TO VISIBILITY.

MIZ047>049-052>055-059>063-066>070-074>076-081>083-310000-
SOUTHEAST LOWER MICHIGAN

CITY           SKY/WX    TMP DP  RH WIND       PRES   REMARKS
ADRIAN         SUNNY     81  67  62 W5        30.02S
ALMA           PTSUNNY   76  68  76 CALM      30.02S
ANN ARBOR      MOSUNNY   80  68  66 W6        30.01S
BAD AXE        SUNNY     76  67  74 CALM      30.00F
DETROIT CITY   PTSUNNY   79  68  69 S7        30.00S
DETROIT        CLOUDY    78  70  76 CALM      30.01F
FLINT          MOSUNNY   80  68  66 W9        30.01S
GROSSE ILE     PTSUNNY   75  66  73 S7        29.99F
HILLSDALE      MOSUNNY   78  71  79 NW6       30.04S
HOWELL         SUNNY     78  67  67 W6        30.02S

CITY           SKY/WX    TMP DP  RH WIND       PRES   REMARKS
JACKSON        SUNNY     76  68  76 W6        30.03S
LAMBERTVILLE   SUNNY     83  67  57 W3        30.01S
LANSING        MOSUNNY   77  65  66 W8        30.02F
LAPEER         NOT AVBL
MASON          MOSUNNY   78  65  64 W5        30.03S
MONROE         PTSUNNY   78  70  77 E5        30.00S
MT. CLEMENS    PTSUNNY   78  70  76 CALM      29.99S
PONTIAC        MOSUNNY   79  67  66 W8        30.01S
PORT HOPE        N/A     71  67  87 SE3       29.99F
PORT HURON     MOSUNNY   77  68  73 CALM      30.00S
TRI CITIES     MOSUNNY   77  68  73 W5        30.01S
YPSILANTI      PTSUNNY   85  69  58 W9        30.01S
$$
MIZ043>046-050>051-056>058-064>065-071>073-077>080-310000-
SOUTHWEST LOWER MICHIGAN

CITY           SKY/WX    TMP DP  RH WIND       PRES   REMARKS
BATTLE CREEK   MOSUNNY   77  67  71 W6        30.04S
BENTON HARBOR  SUNNY     71  64  78 CALM      30.03F
BIG RAPIDS     MOSUNNY   73  65  76 SW6       30.01F
COLDWATER      SUNNY     76  68  76 NW5       30.03F
HOLLAND        MOSUNNY   72  66  81 NW5       30.03F
GRAND RAPIDS   MOSUNNY   75  66  73 W8        30.02F
KALAMAZOO      PTSUNNY   77  66  68 W6        30.03F
MARSHALL       MOSUNNY   77  68  74 SW8       30.03S
MUSKEGON       PTSUNNY   71  63  75 SW7       30.03S
$$
MIZ016>042-310000-
NORTHERN LOWER MICHIGAN

CITY           SKY/WX    TMP DP  RH WIND       PRES   REMARKS
ALPENA         SUNNY     74  65  73 E6        29.97F
BEAVER ISLAND  SUNNY     67  62  82 SW8       29.98S
BELLAIRE       SUNNY     75  63  65 SW5       29.98F
CADILLAC       SUNNY     74  65  71 W6        30.02S
CHARLEVOIX     SUNNY     69  64  83 W8        30.01F
FRANKFORT      PTCLDY    67  63  85 SW6       30.01S
GAYLORD        SUNNY     75  63  66 W7        30.00F
GRAYLING       MOSUNNY   76  63  64 CALM      30.01S
HARBOR SPRINGS SUNNY     69  63  82 W7        29.98F
HOUGHTON LAKE  SUNNY     74  64  71 SW6       30.01F
MANISTEE       SUNNY     68  61  77 W6        30.02S
OSCODA         SUNNY     75  65  71 SW6       29.98S
TRAVERSE CITY  MOSUNNY   76  63  64 SW5       29.98S
$$
MIZ007>008-015-310000-
EASTERN UPPER MICHIGAN

CITY           SKY/WX    TMP DP  RH WIND       PRES   REMARKS
KINROSS        MOSUNNY   70  63  78 SW8       29.96F
MACKINAC ISLAN SUNNY     67  60  79 W10G16    29.97F
NEWBERRY       PTSUNNY   68  61  79 S14G20    29.94F
S. S. MARIE    MOSUNNY   71  60  68 S13G18    29.94F
$$
MIZ004>006-011>014-085-310000-
CENTRAL UPPER MICHIGAN

CITY           SKY/WX    TMP DP  RH WIND       PRES   REMARKS
MANISTIQUE     MOSUNNY   66  62  86 S12G18    29.95F FOG
ESCANABA       MOSUNNY   70  61  73 S13G21    29.93F
MENOMINEE      SUNNY     73  63  68 SW8       29.96R
SAWYER-GWINN   SUNNY     79  63  57 SW13      29.92S
$$
MIZ001>003-009>011-084-310000-
WESTERN UPPER MICHIGAN

CITY           SKY/WX    TMP DP  RH WIND       PRES   REMARKS
IRON MOUNTAIN  SUNNY     76  63  64 S8        29.94S
HOUGHTON       SUNNY     78  64  61 W7        29.87S
IRONWOOD       SUNNY     79  63  57 SW8G16    29.87S
$$

ABBREVIATIONS USED IN REMARKS
   TC - TEMPERATURE IN CELSIUS
  WCI - WIND CHILL INDEX
   HX - HEAT INDEX
  VSB - VISIBILITY



USA.gov is the U.S. government's official web portal to all federal, state and local government web resources and services.